TimeCDT,TemperatureF,Dew PointF,Humidity,Sea Level PressureIn,VisibilityMPH,Wind Direction,Wind SpeedMPH,Gust SpeedMPH,PrecipitationIn,Events,Conditions,WindDirDegrees,DateUTC
12:53 AM,75.9,70.0,82,29.80,10.0,SSE,6.9,-,N/A,,Clear,150,2012-10-17 05:53:00
1:53 AM,77.0,71.1,82,29.77,10.0,SSE,8.1,-,N/A,,Clear,160,2012-10-17 06:53:00
2:53 AM,77.0,71.1,82,29.76,10.0,South,9.2,-,N/A,,Clear,170,2012-10-17 07:53:00
3:53 AM,77.0,71.1,82,29.74,10.0,South,10.4,-,N/A,,Clear,180,2012-10-17 08:53:00
4:53 AM,75.9,71.1,85,29.75,10.0,South,4.6,-,N/A,,Clear,180,2012-10-17 09:53:00
5:53 AM,75.0,71.1,87,29.76,10.0,SSE,3.5,-,N/A,,Clear,150,2012-10-17 10:53:00
6:53 AM,75.9,71.1,85,29.76,10.0,South,6.9,-,N/A,,Clear,170,2012-10-17 11:53:00
7:53 AM,77.0,71.1,82,29.77,10.0,South,9.2,-,N/A,,Clear,180,2012-10-17 12:53:00
8:53 AM,79.0,73.0,82,29.77,8.0,South,9.2,-,N/A,,Clear,190,2012-10-17 13:53:00
9:53 AM,82.0,72.0,71,29.79,9.0,South,12.7,19.6,N/A,,Clear,190,2012-10-17 14:53:00
10:53 AM,84.0,71.1,65,29.80,10.0,South,13.8,20.7,N/A,,Clear,190,2012-10-17 15:53:00
11:53 AM,86.0,70.0,59,29.78,9.0,South,15.0,20.7,N/A,,Clear,190,2012-10-17 16:53:00
12:53 PM,87.1,70.0,57,29.76,9.0,South,10.4,-,N/A,,Clear,190,2012-10-17 17:53:00
1:53 PM,87.1,68.0,53,29.72,9.0,South,15.0,20.7,N/A,,Clear,180,2012-10-17 18:53:00
2:53 PM,88.0,66.9,49,29.69,9.0,South,16.1,24.2,N/A,,Clear,190,2012-10-17 19:53:00
3:53 PM,90.0,66.9,46,29.67,9.0,SSW,13.8,21.9,N/A,,Clear,200,2012-10-17 20:53:00
4:53 PM,90.0,68.0,48,29.66,9.0,South,15.0,21.9,N/A,,Clear,180,2012-10-17 21:53:00
5:53 PM,88.0,69.1,53,29.67,9.0,South,11.5,18.4,N/A,,Clear,180,2012-10-17 22:53:00
6:53 PM,84.9,70.0,61,29.67,8.0,South,8.1,-,N/A,,Clear,170,2012-10-17 23:53:00
7:53 PM,82.0,73.0,74,29.69,10.0,South,13.8,-,N/A,,Clear,170,2012-10-18 00:53:00
8:53 PM,80.1,73.9,81,29.70,9.0,SSE,11.5,-,N/A,,Clear,160,2012-10-18 01:53:00
9:53 PM,80.1,75.0,85,29.71,8.0,South,11.5,-,N/A,,Clear,170,2012-10-18 02:53:00
10:53 PM,80.1,75.0,85,29.73,8.0,South,10.4,-,N/A,,Clear,170,2012-10-18 03:53:00
11:53 PM,79.0,75.0,88,29.72,8.0,South,9.2,-,N/A,,Clear,180,2012-10-18 04:53:00